STARLINK-34398, 64445

Orbit data source: Space-Track

STARLINK-34398, 64445 is a payload satellite owned by SpaceX/Seattle (US) in LEO that was launched on Wed, 18 Jun 2025 UTC via an FALCON 9 launch vehicle from the Air Force Eastern Test Range (AFETR). Payload-class satellites include a variety of spacecraft equipped with specific instruments for various scientific and technological missions. These include communications satellites like Starlink; space stations such as the ISS; scientific satellites like the Hubble; Earth observation satellites from companies like Planet Labs, Umbra, and HawkEye 360; GPS; miniature CubeSats for education and research; and military/defense satellites.

Loading next visibility...
Identifier
64445, 2025-130H
Orbit
LEO
Country
Flag of USUS
Related business
Manufacturer
SpaceX/Seattle
Mission
Operational Commercial Communications
Bus & Motor
STARLINK V2MO, Unknown motor
Mass
575 kg wet, ~530 kg dry
Launch date (UTC)
2025-06-18 (1 year ago)
Launch vehicle
FALCON 9
Launch site
Air Force Eastern Test Range (AFETR)
Object type
Payload
Rocket body
Debris
Shape & HBR
Box + 2 Pan, 17.7 m
Radar Cross Section
36.964 m², Large (>1 m²)

Expand to show TLE details & history
Last TLE update: 1 day ago

TLE from 1 day ago
0 STARLINK-34398
1 64445U 25130H   26170.73829150  .00016556  00000-0  56973-3 0  9991
2 64445  53.1594 334.7829 0000935  69.3885 290.7216 15.30207796 56327
Epoch: 2026-06-19T17:43Z
TLE epoch observation values (Epoch: 2026-06-19T17:43:08.385Z)
Latitude
-0.00003°
Longitude
161.03498°
Altitude
475.865 km
Speed
7.629 km/s
True Right ascension
22h 19m 07s
True Declination
0° 00' 00"
Sunlit
Object was in partial shadow at epoch
Visualization orbit readout
Latitude
Unknown
Longitude
Unknown
Altitude
Unknown
Speed
Unknown
Apparent Right ascension
Unknown
Apparent Declination
Unknown
Sunlit
N/A
Visualization observer readout
Local Sidereal Time
08:33:26
Azimuth
Unknown
Elevation
Unknown
Doppler factor
Unknown
Orbital elements
Apogee altitude
476.089 km
Perigee altitude
474.808 km
Semi-major axis
6,853.585 km
Eccentricity
0.00009
Inclination
53.1594°
RAAN
334.7829°
Arg. of periapsis
69.3885°
True anomaly
290.71158°
Mean anomaly
290.7216°
Eccentric anomaly
290.71659°
Mean motion
3.82531 °/min
Orbital period
94.11 mins
BSTAR
0.00056973
Loading maneuver chart data...
Computing Atmospheric mass density...
Loading historical data...
Loading historical data...
Loading historical data...
Loading historical data...
Loading historical data...
Loading historical data...
Loading historical data...

Documentation

Showing up to 5 results
|